| time (UTC) | temp F | wind direction | speed MPH | gust MPH | rain 1hr in | rain 24hr in | rain mn in | humidity % | barometer mb |
| 20260901145204 | 73 | 240 | 4.0 | 14.0 | 0.00 | 0.00 | 0.00 | 45 | 1017.2 |
| 20260901143707 | 74 | 240 | 5.0 | 9.0 | 0.00 | 0.00 | 0.00 | 43 | 1017.3 |
| 20260901143204 | 74 | 230 | 3.0 | 10.0 | 0.00 | 0.00 | 0.00 | 44 | 1017.3 |
| 20260901142738 | 74 | 195 | 4.0 | 10.0 | 0.00 | 0.00 | 0.00 | 45 | 1017.1 |
| 20260901142204 | 74 | 241 | 5.0 | 10.0 | 0.00 | 0.00 | 0.00 | 46 | 1017.1 |
| 20260901141708 | 74 | 203 | 3.0 | 7.0 | 0.00 | 0.00 | 0.00 | 46 | 1017.2 |
| 20260901141208 | 73 | 178 | 2.0 | 9.0 | 0.00 | 0.00 | 0.00 | 48 | 1017.2 |
| 20260901140203 | 72 | 262 | 2.0 | 9.0 | 0.00 | 0.00 | 0.00 | 50 | 1017.3 |
| 20260901135705 | 71 | 173 | 3.0 | 10.0 | 0.00 | 0.00 | 0.00 | 51 | 1017.4 |
| 20260901135204 | 72 | 235 | 4.0 | 10.0 | 0.00 | 0.00 | 0.00 | 50 | 1017.4 |
| 20260901134704 | 72 | 221 | 2.0 | 9.0 | 0.00 | 0.00 | 0.00 | 50 | 1017.3 |
| 20260901134204 | 71 | 209 | 4.0 | 9.0 | 0.00 | 0.00 | 0.00 | 52 | 1017.4 |
| 20260901133705 | 71 | 178 | 3.0 | 9.0 | 0.00 | 0.00 | 0.00 | 52 | 1017.4 |
| 20260901133205 | 71 | 224 | 3.0 | 7.0 | 0.00 | 0.00 | 0.00 | 51 | 1017.5 |
| 20260901132705 | 72 | 173 | 2.0 | 7.0 | 0.00 | 0.00 | 0.00 | 51 | 1017.5 |
| 20260901132204 | 72 | 262 | 2.0 | 7.0 | 0.00 | 0.00 | 0.00 | 51 | 1017.6 |
| 20260901131704 | 73 | 219 | 2.0 | 7.0 | 0.00 | 0.00 | 0.00 | 50 | 1017.6 |
| 20260901131204 | 72 | 176 | 1.0 | 6.0 | 0.00 | 0.00 | 0.00 | 53 | 1017.4 |
| 20260901130704 | 72 | 220 | 1.0 | 11.0 | 0.00 | 0.00 | 0.00 | 52 | 1017.6 |
| 20260901130204 | 72 | 203 | 2.0 | 11.0 | 0.00 | 0.00 | 0.00 | 50 | 1017.6 |
| 20260901125704 | 72 | 155 | 2.0 | 11.0 | 0.00 | 0.00 | 0.00 | 50 | 1017.6 |
| 20260901124704 | 72 | 288 | 3.0 | 6.0 | 0.00 | 0.00 | 0.00 | 51 | 1017.7 |
| 20260901124205 | 71 | 252 | 3.0 | 6.0 | 0.00 | 0.00 | 0.00 | 51 | 1017.8 |
| 20260901123704 | 71 | 223 | 2.0 | 6.0 | 0.00 | 0.00 | 0.00 | 49 | 1017.7 |
| 20260901122705 | 72 | 231 | 2.0 | 7.0 | 0.00 | 0.00 | 0.00 | 47 | 1017.7 |
| 20260901122204 | 73 | 244 | 3.0 | 10.0 | 0.00 | 0.00 | 0.00 | 47 | 1017.8 |
| 20260901121736 | 72 | 134 | 2.0 | 10.0 | 0.00 | 0.00 | 0.00 | 47 | 1017.9 |
| 20260901121204 | 72 | 216 | 3.0 | 10.0 | 0.00 | 0.00 | 0.00 | 48 | 1017.9 |
| 20260901120704 | 72 | 223 | 1.0 | 7.0 | 0.00 | 0.00 | 0.00 | 46 | 1017.7 |
| 20260901120204 | 71 | 230 | 3.0 | 7.0 | 0.00 | 0.00 | 0.00 | 48 | 1017.9 |
| 20260901115705 | 71 | 255 | 2.0 | 10.0 | 0.00 | 0.00 | 0.00 | 50 | 1017.9 |
| 20260901115205 | 71 | 272 | 4.0 | 10.0 | 0.00 | 0.00 | 0.00 | 49 | 1017.9 |
| 20260901114707 | 70 | 237 | 3.0 | 10.0 | 0.00 | 0.00 | 0.00 | 49 | 1018.0 |
| 20260901114204 | 70 | 243 | 5.0 | 10.0 | 0.00 | 0.00 | 0.00 | 48 | 1018.0 |
| 20260901113204 | 71 | 195 | 3.0 | 6.0 | 0.00 | 0.00 | 0.00 | 48 | 1018.0 |
| 20260901112705 | 71 | 178 | 1.0 | 7.0 | 0.00 | 0.00 | 0.00 | 49 | 1018.0 |
| 20260901111704 | 71 | 196 | 2.0 | 7.0 | 0.00 | 0.00 | 0.00 | 49 | 1018.1 |
| 20260901111205 | 70 | 183 | 2.0 | 7.0 | 0.00 | 0.00 | 0.00 | 50 | 1018.0 |
| 20260901110704 | 70 | 219 | 2.0 | 7.0 | 0.00 | 0.00 | 0.00 | 50 | 1017.9 |
| 20260901110204 | 69 | 172 | 2.0 | 12.0 | 0.00 | 0.00 | 0.00 | 50 | 1018.1 |
| 20260901105704 | 69 | 248 | 2.0 | 12.0 | 0.00 | 0.00 | 0.00 | 50 | 1018.1 |
| 20260901105205 | 69 | 157 | 2.0 | 12.0 | 0.00 | 0.00 | 0.00 | 51 | 1018.0 |
| 20260901104704 | 69 | 206 | 5.0 | 7.0 | 0.00 | 0.00 | 0.00 | 50 | 1018.2 |
| 20260901104205 | 69 | 248 | 2.0 | 9.0 | 0.00 | 0.00 | 0.00 | 51 | 1018.1 |
| 20260901103705 | 69 | 183 | 2.0 | 9.0 | 0.00 | 0.00 | 0.00 | 51 | 1018.2 |
| 20260901103204 | 69 | 210 | 3.0 | 7.0 | 0.00 | 0.00 | 0.00 | 52 | 1018.3 |
| 20260901102705 | 69 | 197 | 2.0 | 6.0 | 0.00 | 0.00 | 0.00 | 53 | 1018.2 |
| 20260901101704 | 69 | 183 | 1.0 | 6.0 | 0.00 | 0.00 | 0.00 | 53 | 1018.4 |
| 20260901101204 | 69 | 206 | 2.0 | 6.0 | 0.00 | 0.00 | 0.00 | 54 | 1018.4 |
| 20260901100707 | 69 | 186 | 2.0 | 6.0 | 0.00 | 0.00 | 0.00 | 56 | 1018.5 |
| 20260901100203 | 68 | 124 | 2.0 | 6.0 | 0.00 | 0.00 | 0.00 | 57 | 1018.6 |
| 20260901095704 | 68 | 169 | 2.0 | 5.0 | 0.00 | 0.00 | 0.00 | 58 | 1018.5 |
| 20260901095204 | 67 | 207 | 1.0 | 7.0 | 0.00 | 0.00 | 0.00 | 59 | 1018.5 |
| 20260901094704 | 67 | 224 | 2.0 | 9.0 | 0.00 | 0.00 | 0.00 | 60 | 1018.7 |
| 20260901094205 | 66 | 227 | 4.0 | 9.0 | 0.00 | 0.00 | 0.00 | 60 | 1018.7 |
| 20260901093204 | 66 | 209 | 2.0 | 9.0 | 0.00 | 0.00 | 0.00 | 61 | 1018.6 |
| 20260901092704 | 65 | 183 | 1.0 | 9.0 | 0.00 | 0.00 | 0.00 | 63 | 1018.6 |
| 20260901092205 | 65 | 272 | 3.0 | 9.0 | 0.00 | 0.00 | 0.00 | 62 | 1018.6 |
| 20260901091705 | 65 | 252 | 3.0 | 9.0 | 0.00 | 0.00 | 0.00 | 64 | 1018.7 |
| 20260901091204 | 65 | 254 | 3.0 | 5.0 | 0.00 | 0.00 | 0.00 | 64 | 1018.6 |
| 20260901090207 | 64 | 193 | 1.0 | 4.0 | 0.00 | 0.00 | 0.00 | 69 | 1018.6 |
| 20260901085705 | 64 | 197 | 2.0 | 4.0 | 0.00 | 0.00 | 0.00 | 70 | 1018.6 |
| 20260901085204 | 63 | 237 | 3.0 | 3.0 | 0.00 | 0.00 | 0.00 | 70 | 1018.6 |
| 20260901084204 | 62 | 235 | 1.0 | 3.0 | 0.00 | 0.00 | 0.00 | 74 | 1018.6 |
| 20260901083704 | 62 | 237 | 1.0 | 4.0 | 0.00 | 0.00 | 0.00 | 74 | 1018.5 |
| 20260901083203 | 61 | 237 | 2.0 | 4.0 | 0.00 | 0.00 | 0.00 | 74 | 1018.5 |
| 20260901082730 | 61 | 237 | 0.0 | 4.0 | 0.00 | 0.00 | 0.00 | 75 | 1018.5 |
| 20260901082209 | 61 | 237 | 0.0 | 3.0 | 0.00 | 0.00 | 0.00 | 77 | 1018.5 |
| 20260901081205 | 60 | 237 | 1.0 | 4.0 | 0.00 | 0.00 | 0.00 | 77 | 1018.6 |
| 20260901080710 | 60 | 237 | 1.0 | 4.0 | 0.00 | 0.00 | 0.00 | 77 | 1018.5 |
| 20260901080205 | 59 | 237 | 1.0 | 3.0 | 0.00 | 0.00 | 0.00 | 78 | 1018.4 |
| 20260901075704 | 59 | 237 | 1.0 | 4.0 | 0.00 | 0.00 | 0.00 | 78 | 1018.4 |
| 20260901075205 | 59 | 237 | 1.0 | 4.0 | 0.00 | 0.00 | 0.00 | 78 | 1018.4 |
| 20260901074707 | 59 | 237 | 1.0 | 4.0 | 0.00 | 0.00 | 0.00 | 78 | 1018.3 |
| 20260901073705 | 58 | 237 | 1.0 | 3.0 | 0.00 | 0.00 | 0.00 | 78 | 1018.2 |
| 20260901072705 | 58 | 237 | 1.0 | 4.0 | 0.00 | 0.00 | 0.00 | 79 | 1018.3 |
| 20260901072205 | 58 | 237 | 1.0 | 4.0 | 0.00 | 0.00 | 0.00 | 78 | 1018.2 |
| 20260901071705 | 58 | 237 | 1.0 | 2.0 | 0.00 | 0.00 | 0.00 | 78 | 1018.2 |
| 20260901070705 | 57 | 238 | 0.0 | 2.0 | 0.00 | 0.00 | 0.00 | 77 | 1018.2 |
| 20260901070205 | 57 | 238 | 0.0 | 2.0 | 0.00 | 0.00 | 0.00 | 77 | 1018.2 |
| 20260901064704 | 56 | 238 | 0.0 | 1.0 | 0.00 | 0.00 | 0.00 | 77 | 1018.0 |
| 20260901064203 | 56 | 238 | 0.0 | 2.0 | 0.00 | 0.00 | 0.00 | 77 | 1018.0 |
| 20260901063705 | 56 | 238 | 0.0 | 2.0 | 0.00 | 0.00 | 0.00 | 77 | 1018.0 |
| 20260901063205 | 56 | 238 | 0.0 | 2.0 | 0.00 | 0.00 | 0.00 | 77 | 1017.9 |
| 20260901062705 | 56 | 238 | 0.0 | 1.0 | 0.00 | 0.00 | 0.00 | 76 | 1017.9 |
| 20260901062204 | 56 | 238 | 0.0 | 1.0 | 0.00 | 0.00 | 0.00 | 76 | 1017.9 |
| 20260901061704 | 56 | 238 | 0.0 | 1.0 | 0.00 | 0.00 | 0.00 | 76 | 1017.9 |
| 20260901060706 | 55 | 238 | 0.0 | 1.0 | 0.00 | 0.00 | 0.00 | 76 | 1017.9 |
| 20260901060205 | 55 | 238 | 0.0 | 1.0 | 0.00 | 0.00 | 0.00 | 76 | 1017.8 |
| 20260901055705 | 55 | 238 | 0.0 | 1.0 | 0.00 | 0.00 | 0.00 | 76 | 1017.7 |
| 20260901055204 | 55 | 238 | 0.0 | 1.0 | 0.00 | 0.00 | 0.00 | 76 | 1017.7 |
| 20260901054705 | 55 | 238 | 0.0 | 1.0 | 0.00 | 0.00 | 0.00 | 76 | 1017.7 |
| 20260901054204 | 55 | 238 | 0.0 | 1.0 | 0.00 | 0.00 | 0.00 | 76 | 1017.7 |
| 20260901053704 | 55 | 238 | 0.0 | 1.0 | 0.00 | 0.00 | 0.00 | 76 | 1017.6 |
| 20260901053225 | 55 | 238 | 0.0 | 1.0 | 0.00 | 0.00 | 0.00 | 76 | 1017.6 |
| 20260901051704 | 55 | 238 | 0.0 | 1.0 | 0.00 | 0.00 | 0.00 | 77 | 1017.6 |
| 20260901051204 | 55 | 238 | 0.0 | 1.0 | 0.00 | 0.00 | 0.00 | 77 | 1017.5 |
| 20260901050704 | 55 | 238 | 0.0 | 1.0 | 0.00 | 0.00 | 0.00 | 77 | 1017.4 |
| 20260901050204 | 55 | 238 | 0.0 | 1.0 | 0.00 | 0.00 | 0.00 | 77 | 1017.4 |
| 20260901044705 | 55 | 238 | 0.0 | 1.0 | 0.00 | 0.00 | 0.00 | 78 | 1017.3 |
| 20260901044205 | 55 | 238 | 0.0 | 1.0 | 0.00 | 0.00 | 0.00 | 78 | 1017.3 |
| 20260901043705 | 55 | 238 | 0.0 | 1.0 | 0.00 | 0.00 | 0.00 | 78 | 1017.4 |
| 20260901043204 | 55 | 238 | 0.0 | 1.0 | 0.00 | 0.00 | 0.00 | 78 | 1017.4 |
| 20260901042704 | 55 | 238 | 0.0 | 0.0 | 0.00 | 0.00 | 0.00 | 78 | 1017.4 |
| 20260901042204 | 55 | 238 | 0.0 | 0.0 | 0.00 | 0.00 | 0.00 | 78 | 1017.4 |
| 20260901041705 | 55 | 238 | 0.0 | 1.0 | 0.00 | 0.00 | 0.00 | 78 | 1017.2 |
| 20260901041205 | 55 | 238 | 0.0 | 1.0 | 0.00 | 0.00 | 0.00 | 78 | 1017.1 |
| 20260901040705 | 56 | 238 | 0.0 | 1.0 | 0.00 | 0.00 | 0.00 | 78 | 1017.1 |
| 20260901040203 | 56 | 238 | 0.0 | 1.0 | 0.00 | 0.00 | 0.00 | 78 | 1017.1 |
| 20260901035206 | 56 | 238 | 0.0 | 1.0 | 0.00 | 0.00 | 0.00 | 78 | 1017.1 |
| 20260901034705 | 56 | 238 | 0.0 | 1.0 | 0.00 | 0.00 | 0.00 | 79 | 1017.0 |
| 20260901033705 | 56 | 238 | 0.0 | 2.0 | 0.00 | 0.00 | 0.00 | 78 | 1017.1 |
| 20260901033204 | 56 | 238 | 0.0 | 2.0 | 0.00 | 0.00 | 0.00 | 78 | 1017.0 |
| 20260901032704 | 56 | 238 | 0.0 | 2.0 | 0.00 | 0.00 | 0.00 | 78 | 1017.0 |
| 20260901032203 | 56 | 238 | 0.0 | 1.0 | 0.00 | 0.00 | 0.00 | 78 | 1017.0 |
| 20260901031705 | 56 | 238 | 0.0 | 1.0 | 0.00 | 0.00 | 0.00 | 78 | 1017.0 |
| 20260901031204 | 57 | 238 | 0.0 | 1.0 | 0.00 | 0.00 | 0.00 | 78 | 1017.0 |
| 20260901030704 | 57 | 238 | 0.0 | 1.0 | 0.00 | 0.00 | 0.00 | 78 | 1017.0 |
| 20260901030204 | 57 | 238 | 0.0 | 1.0 | 0.00 | 0.00 | 0.00 | 78 | 1017.0 |
| 20260901025205 | 57 | 238 | 0.0 | 1.0 | 0.00 | 0.00 | 0.00 | 78 | 1017.0 |
| 20260901024705 | 57 | 238 | 0.0 | 0.0 | 0.00 | 0.00 | 0.00 | 78 | 1016.9 |
| 20260901024203 | 58 | 238 | 0.0 | 0.0 | 0.00 | 0.00 | 0.00 | 77 | 1017.0 |
| 20260901023705 | 58 | 238 | 0.0 | 1.0 | 0.00 | 0.00 | 0.00 | 77 | 1017.0 |
| 20260901023204 | 58 | 238 | 0.0 | 1.0 | 0.00 | 0.00 | 0.00 | 77 | 1016.9 |
| 20260901022708 | 58 | 238 | 0.0 | 1.0 | 0.00 | 0.00 | 0.00 | 77 | 1016.9 |
| 20260901022204 | 58 | 238 | 0.0 | 1.0 | 0.00 | 0.00 | 0.00 | 76 | 1016.9 |
| 20260901021704 | 58 | 238 | 0.0 | 1.0 | 0.00 | 0.00 | 0.00 | 76 | 1017.0 |
| 20260901021204 | 58 | 238 | 0.0 | 1.0 | 0.00 | 0.00 | 0.00 | 76 | 1017.0 |
| 20260901020704 | 59 | 238 | 0.0 | 1.0 | 0.00 | 0.00 | 0.00 | 76 | 1016.9 |
| 20260901015704 | 59 | 238 | 0.0 | 1.0 | 0.00 | 0.00 | 0.00 | 75 | 1016.9 |
| 20260901015204 | 59 | 238 | 0.0 | 1.0 | 0.00 | 0.00 | 0.00 | 75 | 1016.8 |
| 20260901014704 | 60 | 238 | 0.0 | 2.0 | 0.00 | 0.00 | 0.00 | 74 | 1016.9 |
| 20260901013706 | 60 | 238 | 0.0 | 4.0 | 0.00 | 0.00 | 0.00 | 74 | 1016.7 |
| 20260901013205 | 60 | 238 | 1.0 | 4.0 | 0.00 | 0.00 | 0.00 | 74 | 1016.8 |
| 20260901012704 | 60 | 238 | 1.0 | 4.0 | 0.00 | 0.00 | 0.00 | 74 | 1016.7 |
| 20260901011204 | 60 | 238 | 1.0 | 2.0 | 0.00 | 0.00 | 0.00 | 72 | 1016.8 |
| 20260901010704 | 61 | 238 | 0.0 | 5.0 | 0.00 | 0.00 | 0.00 | 72 | 1016.6 |
| 20260901010204 | 61 | 238 | 0.0 | 5.0 | 0.00 | 0.00 | 0.00 | 71 | 1016.6 |
| 20260901005704 | 61 | 238 | 1.0 | 5.0 | 0.00 | 0.00 | 0.00 | 71 | 1016.7 |
| 20260901005204 | 61 | 240 | 2.0 | 9.0 | 0.00 | 0.00 | 0.00 | 71 | 1016.6 |
| 20260901003704 | 62 | 241 | 2.0 | 9.0 | 0.00 | 0.00 | 0.00 | 70 | 1016.6 |
| 20260901002706 | 62 | 274 | 2.0 | 7.0 | 0.00 | 0.00 | 0.00 | 70 | 1016.6 |
| 20260901002204 | 62 | 243 | 3.0 | 5.0 | 0.00 | 0.00 | 0.00 | 70 | 1016.6 |
| 20260901001709 | 62 | 231 | 2.0 | 5.0 | 0.00 | 0.00 | 0.00 | 70 | 1016.5 |
| 20260901000704 | 62 | 241 | 2.0 | 5.0 | 0.00 | 0.00 | 0.00 | 69 | 1016.5 |
| 20260901000204 | 63 | 248 | 2.0 | 5.0 | 0.00 | 0.00 | 0.00 | 70 | 1016.4 |
| 20260831235704 | 63 | 238 | 1.0 | 5.0 | 0.00 | 0.00 | 0.00 | 69 | 1016.4 |
| 20260831235205 | 63 | 238 | 1.0 | 5.0 | 0.00 | 0.00 | 0.00 | 69 | 1016.4 |
| 20260831234704 | 63 | 237 | 2.0 | 5.0 | 0.00 | 0.00 | 0.00 | 69 | 1016.4 |
| 20260831234204 | 63 | 241 | 2.0 | 5.0 | 0.00 | 0.00 | 0.00 | 69 | 1016.3 |
| 20260831233704 | 63 | 241 | 1.0 | 5.0 | 0.00 | 0.00 | 0.00 | 69 | 1016.3 |
| 20260831233204 | 63 | 241 | 2.0 | 7.0 | 0.00 | 0.00 | 0.00 | 69 | 1016.2 |
| 20260831232205 | 63 | 241 | 2.0 | 4.0 | 0.00 | 0.00 | 0.00 | 69 | 1016.2 |
| 20260831231706 | 63 | 244 | 1.0 | 4.0 | 0.00 | 0.00 | 0.00 | 69 | 1016.2 |
| 20260831231203 | 63 | 245 | 2.0 | 4.0 | 0.00 | 0.00 | 0.00 | 68 | 1016.2 |
| 20260831230705 | 63 | 245 | 2.0 | 4.0 | 0.00 | 0.00 | 0.00 | 68 | 1016.1 |
| 20260831230204 | 63 | 248 | 1.0 | 6.0 | 0.00 | 0.00 | 0.00 | 68 | 1016.1 |
| 20260831225704 | 64 | 250 | 0.0 | 6.0 | 0.00 | 0.00 | 0.00 | 67 | 1016.0 |
| 20260831225204 | 64 | 250 | 0.0 | 6.0 | 0.00 | 0.00 | 0.00 | 67 | 1016.1 |
| 20260831224704 | 64 | 250 | 0.0 | 6.0 | 0.00 | 0.00 | 0.00 | 67 | 1016.2 |
| 20260831224204 | 64 | 250 | 3.0 | 6.0 | 0.00 | 0.00 | 0.00 | 66 | 1016.2 |
| 20260831223704 | 64 | 254 | 2.0 | 6.0 | 0.00 | 0.00 | 0.00 | 66 | 1016.1 |
| 20260831223205 | 64 | 255 | 1.0 | 7.0 | 0.00 | 0.00 | 0.00 | 66 | 1016.1 |
| 20260831222706 | 64 | 250 | 2.0 | 7.0 | 0.00 | 0.00 | 0.00 | 66 | 1016.0 |
| 20260831221704 | 64 | 237 | 2.0 | 7.0 | 0.00 | 0.00 | 0.00 | 66 | 1016.0 |
| 20260831221204 | 64 | 255 | 3.0 | 5.0 | 0.00 | 0.00 | 0.00 | 67 | 1016.0 |
| 20260831220724 | 64 | 234 | 3.0 | 5.0 | 0.00 | 0.00 | 0.00 | 67 | 1016.0 |
| 20260831220204 | 65 | 248 | 2.0 | 5.0 | 0.00 | 0.00 | 0.00 | 66 | 1015.9 |
| 20260831215705 | 65 | 223 | 2.0 | 5.0 | 0.00 | 0.00 | 0.00 | 66 | 1015.9 |
| 20260831215204 | 65 | 219 | 2.0 | 7.0 | 0.00 | 0.00 | 0.00 | 66 | 1015.9 |
| 20260831214704 | 65 | 203 | 2.0 | 7.0 | 0.00 | 0.00 | 0.00 | 65 | 1015.9 |
| 20260831214204 | 65 | 234 | 2.0 | 11.0 | 0.00 | 0.00 | 0.00 | 65 | 1015.8 |
| 20260831213704 | 65 | 240 | 3.0 | 11.0 | 0.00 | 0.00 | 0.00 | 65 | 1015.7 |
| 20260831212205 | 65 | 250 | 5.0 | 7.0 | 0.00 | 0.00 | 0.00 | 65 | 1015.7 |
| 20260831211205 | 65 | 241 | 2.0 | 4.0 | 0.00 | 0.00 | 0.00 | 67 | 1015.6 |
| 20260831210704 | 65 | 240 | 2.0 | 4.0 | 0.00 | 0.00 | 0.00 | 67 | 1015.6 |
| 20260831210205 | 66 | 241 | 1.0 | 5.0 | 0.00 | 0.02 | 0.00 | 67 | 1015.5 |
| 20260831205704 | 66 | 240 | 1.0 | 5.0 | 0.00 | 0.04 | 0.00 | 67 | 1015.3 |
| 20260831205204 | 66 | 240 | 1.0 | 7.0 | 0.00 | 0.04 | 0.00 | 66 | 1015.3 |
| 20260831204705 | 66 | 240 | 1.0 | 7.0 | 0.00 | 0.04 | 0.00 | 66 | 1015.2 |
| 20260831204204 | 66 | 237 | 2.0 | 9.0 | 0.00 | 0.04 | 0.00 | 65 | 1015.1 |
| 20260831203704 | 66 | 259 | 2.0 | 9.0 | 0.00 | 0.04 | 0.00 | 65 | 1015.0 |
| 20260831202706 | 67 | 233 | 3.0 | 6.0 | 0.00 | 0.04 | 0.00 | 65 | 1014.9 |
| 20260831202204 | 67 | 250 | 3.0 | 6.0 | 0.00 | 0.04 | 0.00 | 65 | 1014.8 |
| 20260831201704 | 67 | 233 | 2.0 | 6.0 | 0.00 | 0.04 | 0.00 | 65 | 1014.7 |
| 20260831201204 | 67 | 228 | 3.0 | 6.0 | 0.00 | 0.04 | 0.00 | 64 | 1014.7 |
| 20260831200706 | 67 | 241 | 2.0 | 6.0 | 0.00 | 0.04 | 0.00 | 64 | 1014.7 |
| 20260831200204 | 67 | 235 | 3.0 | 9.0 | 0.00 | 0.04 | 0.00 | 64 | 1014.5 |
| 20260831195703 | 67 | 213 | 2.0 | 9.0 | 0.00 | 0.04 | 0.00 | 64 | 1014.5 |
| 20260831195204 | 68 | 235 | 4.0 | 9.0 | 0.00 | 0.04 | 0.00 | 64 | 1014.5 |
| 20260831194704 | 68 | 237 | 2.0 | 9.0 | 0.00 | 0.04 | 0.00 | 64 | 1014.4 |
| 20260831194205 | 68 | 237 | 3.0 | 11.0 | 0.00 | 0.04 | 0.00 | 63 | 1014.2 |
| 20260831193709 | 68 | 251 | 4.0 | 11.0 | 0.00 | 0.04 | 0.00 | 63 | 1014.3 |
| 20260831192704 | 69 | 228 | 4.0 | 12.0 | 0.00 | 0.04 | 0.00 | 63 | 1014.2 |
| 20260831191704 | 69 | 259 | 4.0 | 10.0 | 0.00 | 0.04 | 0.00 | 63 | 1013.9 |
| 20260831191204 | 69 | 238 | 5.0 | 11.0 | 0.00 | 0.04 | 0.00 | 63 | 1013.9 |
| 20260831190704 | 69 | 285 | 3.0 | 11.0 | 0.00 | 0.04 | 0.00 | 63 | 1013.9 |
| 20260831185703 | 69 | 244 | 4.0 | 12.0 | 0.00 | 0.04 | 0.00 | 63 | 1013.7 |
| 20260831185205 | 69 | 243 | 2.0 | 12.0 | 0.00 | 0.04 | 0.00 | 63 | 1013.7 |
| 20260831184704 | 69 | 233 | 5.0 | 12.0 | 0.00 | 0.04 | 0.00 | 63 | 1013.7 |
| 20260831184204 | 70 | 228 | 5.0 | 13.0 | 0.00 | 0.04 | 0.00 | 63 | 1013.6 |
| 20260831183704 | 70 | 235 | 4.0 | 13.0 | 0.00 | 0.04 | 0.00 | 62 | 1013.5 |
| 20260831183204 | 70 | 231 | 5.0 | 13.0 | 0.00 | 0.04 | 0.00 | 62 | 1013.5 |
| 20260831182704 | 70 | 230 | 3.0 | 13.0 | 0.00 | 0.04 | 0.00 | 63 | 1013.4 |
| 20260831182204 | 70 | 216 | 4.0 | 5.0 | 0.00 | 0.04 | 0.00 | 65 | 1013.2 |
| 20260831181704 | 70 | 238 | 2.0 | 5.0 | 0.00 | 0.04 | 0.00 | 65 | 1013.1 |
| 20260831181205 | 70 | 238 | 2.0 | 5.0 | 0.00 | 0.04 | 0.00 | 64 | 1013.1 |
| 20260831180705 | 70 | 240 | 2.0 | 5.0 | 0.00 | 0.04 | 0.00 | 64 | 1013.0 |
| 20260831180204 | 70 | 238 | 1.0 | 6.0 | 0.00 | 0.04 | 0.00 | 64 | 1012.9 |
| 20260831174704 | 70 | 241 | 2.0 | 5.0 | 0.00 | 0.04 | 0.00 | 64 | 1012.7 |
| 20260831174203 | 70 | 237 | 1.0 | 5.0 | 0.00 | 0.04 | 0.00 | 64 | 1012.7 |
| 20260831173714 | 70 | 237 | 2.0 | 5.0 | 0.00 | 0.04 | 0.00 | 64 | 1012.7 |
| 20260831173204 | 70 | 237 | 2.0 | 4.0 | 0.00 | 0.04 | 0.00 | 64 | 1012.6 |
| 20260831172704 | 70 | 237 | 2.0 | 4.0 | 0.00 | 0.04 | 0.00 | 64 | 1012.6 |
| 20260831172204 | 70 | 237 | 2.0 | 4.0 | 0.00 | 0.04 | 0.00 | 64 | 1012.6 |
| 20260831171704 | 70 | 237 | 2.0 | 6.0 | 0.00 | 0.04 | 0.00 | 64 | 1012.5 |
| 20260831171228 | 70 | 237 | 1.0 | 6.0 | 0.00 | 0.04 | 0.00 | 65 | 1012.4 |
| 20260831170704 | 70 | 237 | 0.0 | 6.0 | 0.00 | 0.04 | 0.00 | 65 | 1012.4 |
| 20260831170204 | 70 | 247 | 2.0 | 5.0 | 0.00 | 0.04 | 0.00 | 65 | 1012.3 |
| 20260831165203 | 70 | 255 | 2.0 | 6.0 | 0.00 | 0.04 | 0.00 | 65 | 1012.2 |
| 20260831164704 | 70 | 255 | 2.0 | 6.0 | 0.00 | 0.04 | 0.00 | 65 | 1012.2 |
| 20260831163705 | 71 | 268 | 2.0 | 6.0 | 0.00 | 0.04 | 0.00 | 64 | 1012.1 |
| 20260831162705 | 71 | 217 | 2.0 | 7.0 | 0.00 | 0.04 | 0.00 | 66 | 1012.0 |
| 20260831162204 | 70 | 283 | 2.0 | 7.0 | 0.00 | 0.04 | 0.00 | 67 | 1012.1 |
| 20260831161705 | 70 | 254 | 1.0 | 7.0 | 0.00 | 0.04 | 0.00 | 66 | 1012.0 |
| 20260831160705 | 70 | 247 | 3.0 | 7.0 | 0.00 | 0.04 | 0.00 | 65 | 1012.0 |
| 20260831160207 | 70 | 286 | 4.0 | 9.0 | 0.00 | 0.04 | 0.00 | 65 | 1012.0 |
| 20260831155705 | 70 | 255 | 2.0 | 9.0 | 0.00 | 0.04 | 0.00 | 65 | 1011.9 |
| 20260831155204 | 70 | 228 | 1.0 | 6.0 | 0.00 | 0.04 | 0.00 | 66 | 1011.7 |
| 20260831154704 | 70 | 240 | 2.0 | 6.0 | 0.00 | 0.04 | 0.00 | 67 | 1011.7 |
| 20260831154204 | 70 | 233 | 2.0 | 6.0 | 0.00 | 0.04 | 0.00 | 67 | 1011.6 |
| 20260831153205 | 70 | 228 | 2.0 | 9.0 | 0.00 | 0.04 | 0.00 | 67 | 1011.6 |
| 20260831152707 | 70 | 240 | 2.0 | 9.0 | 0.00 | 0.04 | 0.00 | 67 | 1011.6 |
| 20260831152203 | 70 | 285 | 1.0 | 9.0 | 0.00 | 0.04 | 0.00 | 67 | 1011.5 |
| 20260831151704 | 70 | 259 | 1.0 | 9.0 | 0.00 | 0.04 | 0.00 | 65 | 1011.4 |
| 20260831151204 | 71 | 265 | 2.0 | 15.0 | 0.00 | 0.04 | 0.00 | 64 | 1011.3 |